Terminal Aerodrome Forecast
Issued by NWS Milwaukee/Sullivan, WI

Home | Current Version | Previous Version | Text Only | Print | Product List | Glossary On
Versions: 1 2 3 4 5 6 7 8 9 10 11 12 13 14 15 16 17 18 19 20 21 22 23 24 25 26 27 28 29 30 31 32 33 34 35 36 37 38 39 40 41 42 43 44 45 46 47 48 49 50
000
FTUS43 KMKX 270957 AAC
TAFMKE
TAF AMD
KMKE 270957Z 2710/2812 32008KT 4SM -SN SCT025 OVC040
      TEMPO 2710/2711 2SM -SN BR BKN025
     FM271300 31011G18KT P6SM BKN020 BKN040
     FM272100 32010KT P6SM SCT030 SCT150
     FM281000 24004KT P6SM BKN100=

USA.gov is the U.S. government's official web portal to all federal, state and local government web resources and services.